Tracking 31011 objects as of 12-Jul-2025
HD Live streaming from Space Station
objects crossing your sky now

BPA 3/SL-24 R/B

Track BPA 3/SL-24 R/B now!
10-day predictions


NORAD ID: 39448
Int'l Code: 2013-066AJ
Perigee: 598.2 km
Apogee: 1,611.2 km
Inclination: 97.7 °
Period: 107.2 minutes
Semi major axis: 7475 km
RCS: Unknown
Launch date: November 21, 2013
Source: Commonwealth of Independent States (former USSR) (CIS)
Launch site: Orenburg, Russia (OREN)

Note: This is a ROCKET BODY
Your satellite tracking list
Your tracking list is empty




NASA's NSSDC Master Catalog

Two Line Element Set (TLE):
1 39448U 13066AJ  25192.95869459  .00000019  00000-0  23407-4 0  9998
2 39448  97.6954  72.1256 0677487 197.2301 160.4787 13.43152932570216
Source of the keplerian elements: AFSPC